Radiation Dose at Monitoring Post of Fukushima Daini Nuclear Power Station
Date,Time,MP-1(microSv/h),MP-2(microSv/h),MP-3(microSv/h),MP-4(microSv/h),MP-5(microSv/h),MP-6(microSv/h),MP-7(microSv/h),Wind Direction,Wind Velocity(m/s),Rain
2019/05/07,00:00,0.199,0.189,0.294,0.278,0.275,0.152,0.098,northwest,6.3,Yes
2019/05/07,00:10,0.199,0.187,0.294,0.277,0.273,0.152,0.096,northwest,4.4,Yes
2019/05/07,00:20,0.197,0.187,0.295,0.275,0.272,0.150,0.096,north-northwest,4.2,Yes
2019/05/07,00:30,0.196,0.186,0.294,0.275,0.274,0.150,0.095,north-northwest,4.4,Yes
2019/05/07,00:40,0.196,0.185,0.294,0.274,0.271,0.151,0.095,north-northwest,3.9,Yes
2019/05/07,00:50,0.196,0.185,0.292,0.275,0.270,0.149,0.096,north-northwest,2.5,Yes
2019/05/07,01:00,0.195,0.184,0.291,0.275,0.271,0.149,0.096,north,2.3,Yes
2019/05/07,01:10,0.196,0.185,0.292,0.274,0.271,0.147,0.095,north,2.4,Yes
2019/05/07,01:20,0.193,0.184,0.291,0.274,0.271,0.148,0.094,north,2.6,Yes
2019/05/07,01:30,0.194,0.183,0.291,0.273,0.271,0.148,0.094,north-northwest,3.2,Yes
2019/05/07,01:40,0.194,0.184,0.292,0.274,0.271,0.149,0.094,north,3.7,Yes
2019/05/07,01:50,0.193,0.183,0.292,0.275,0.270,0.149,0.094,north-northwest,3.4,Yes
2019/05/07,02:00,0.193,0.183,0.293,0.273,0.271,0.148,0.095,northwest,5.1,Yes
2019/05/07,02:10,0.194,0.185,0.292,0.274,0.270,0.149,0.093,northwest,7.3,Yes
2019/05/07,02:20,0.193,0.182,0.289,0.274,0.269,0.149,0.093,north-northwest,4.9,Yes
2019/05/07,02:30,0.194,0.183,0.292,0.273,0.269,0.147,0.094,north-northwest,5.1,Yes
2019/05/07,02:40,0.192,0.183,0.293,0.273,0.270,0.148,0.093,north-northwest,4.8,Yes
2019/05/07,02:50,0.194,0.183,0.291,0.274,0.269,0.148,0.094,north,4.0,Yes
2019/05/07,03:00,0.194,0.185,0.293,0.274,0.269,0.147,0.094,north,2.5,Yes
2019/05/07,03:10,0.194,0.184,0.291,0.275,0.270,0.149,0.093,north,2.7,Yes
2019/05/07,03:20,0.194,0.182,0.291,0.274,0.270,0.148,0.093,north,4.5,Yes
2019/05/07,03:30,0.194,0.182,0.292,0.272,0.271,0.148,0.093,north,4.5,No
2019/05/07,03:40,0.192,0.183,0.290,0.273,0.270,0.147,0.092,north,3.6,No
2019/05/07,03:50,0.192,0.182,0.290,0.271,0.268,0.146,0.091,north-northwest,2.9,No
2019/05/07,04:00,0.191,0.181,0.290,0.272,0.269,0.146,0.092,northwest,3.3,No
2019/05/07,04:10,0.191,0.181,0.287,0.272,0.268,0.146,0.091,north-northwest,4.0,No
2019/05/07,04:20,0.191,0.180,0.289,0.271,0.268,0.146,0.090,northwest,4.8,No
2019/05/07,04:30,0.190,0.181,0.288,0.271,0.268,0.145,0.090,northwest,5.6,No
2019/05/07,04:40,0.191,0.180,0.288,0.271,0.266,0.145,0.090,northwest,6.4,No
2019/05/07,04:50,0.190,0.179,0.290,0.270,0.269,0.144,0.089,west-northwest,7.6,No
2019/05/07,05:00,0.189,0.180,0.288,0.272,0.265,0.144,0.089,west-northwest,9.5,No
2019/05/07,05:10,0.190,0.178,0.288,0.270,0.266,0.144,0.089,west-northwest,9.8,No
2019/05/07,05:20,0.190,0.179,0.290,0.269,0.266,0.144,0.089,west-northwest,9.2,No
2019/05/07,05:30,0.190,0.178,0.287,0.273,0.267,0.145,0.090,west-northwest,8.9,No
2019/05/07,05:40,0.191,0.180,0.289,0.269,0.267,0.144,0.090,northwest,7.7,No
2019/05/07,05:50,0.191,0.179,0.289,0.270,0.267,0.145,0.090,northwest,8.1,No
2019/05/07,06:00,0.191,0.180,0.289,0.272,0.267,0.144,0.089,north-northwest,6.6,No
2019/05/07,06:10,0.191,0.179,0.289,0.269,0.269,0.144,0.089,north-northwest,6.2,No
2019/05/07,06:20,0.189,0.180,0.289,0.271,0.267,0.144,0.089,north-northwest,5.1,No
2019/05/07,06:30,0.191,0.180,0.288,0.271,0.266,0.144,0.089,north-northwest,4.2,No
2019/05/07,06:40,0.191,0.179,0.290,0.269,0.269,0.144,0.089,north,4.5,No
2019/05/07,06:50,0.190,0.181,0.289,0.272,0.267,0.143,0.089,north,4.8,No
2019/05/07,07:00,0.190,0.179,0.287,0.271,0.267,0.145,0.089,north,4.6,No
2019/05/07,07:10,0.191,0.178,0.289,0.270,0.267,0.144,0.090,north-northwest,3.3,No
2019/05/07,07:20,0.189,0.178,0.287,0.271,0.266,0.145,0.090,north,3.6,No
2019/05/07,07:30,0.191,0.178,0.291,0.269,0.266,0.144,0.089,north,3.4,No
2019/05/07,07:40,0.189,0.179,0.286,0.270,0.267,0.144,0.089,north,3.3,No
2019/05/07,07:50,0.190,0.178,0.289,0.269,0.268,0.144,0.088,north-northeast,3.2,No
2019/05/07,08:00,0.190,0.180,0.288,0.268,0.265,0.144,0.089,north,2.7,No
2019/05/07,08:10,0.191,0.179,0.290,0.271,0.268,0.144,0.089,north,3.8,No
2019/05/07,08:20,0.190,0.178,0.289,0.268,0.265,0.144,0.089,north,3.1,No
2019/05/07,08:30,0.190,0.179,0.289,0.271,0.270,0.145,0.089,north,3.6,No
2019/05/07,08:40,0.191,0.180,0.291,0.269,0.264,0.144,0.090,north,4.6,No
2019/05/07,08:50,0.189,0.179,0.290,0.269,0.267,0.145,0.089,north,3.9,No
2019/05/07,09:00,0.191,0.180,0.292,0.271,0.267,0.145,0.088,north,4.5,No
2019/05/07,09:10,0.190,0.178,0.288,0.269,0.266,0.144,0.089,north-northwest,3.1,No
2019/05/07,09:20,0.191,0.179,0.291,0.270,0.268,0.145,0.089,north-northwest,4.5,No
2019/05/07,09:30,0.190,0.179,0.289,0.270,0.266,0.144,0.089,north,3.2,No
2019/05/07,09:40,0.191,0.179,0.291,0.270,0.270,0.146,0.089,north,3.8,No
2019/05/07,09:50,0.191,0.180,0.289,0.272,0.267,0.146,0.090,north,3.6,No
2019/05/07,10:00,0.191,0.180,0.291,0.271,0.269,0.145,0.089,northeast,3.7,No
2019/05/07,10:10,0.191,0.180,0.290,0.272,0.268,0.145,0.089,northeast,3.3,No
2019/05/07,10:20,0.192,0.180,0.290,0.272,0.269,0.146,0.089,north,2.6,No
2019/05/07,10:30,0.190,0.181,0.290,0.273,0.268,0.146,0.089,north-northwest,1.9,No
2019/05/07,10:40,0.192,0.180,0.290,0.271,0.268,0.145,0.089,-,CALM,No
2019/05/07,10:50,0.191,0.179,0.290,0.272,0.269,0.146,0.089,west-northwest,1.8,No
2019/05/07,11:00,0.190,0.180,0.292,0.271,0.267,0.145,0.090,west-northwest,8.1,No
2019/05/07,11:10,0.191,0.180,0.289,0.273,0.269,0.147,0.089,west-northwest,6.5,No
2019/05/07,11:20,0.192,0.180,0.292,0.271,0.268,0.145,0.089,west,6.2,No
2019/05/07,11:30,0.192,0.179,0.290,0.271,0.268,0.146,0.090,west-northwest,7.1,No
2019/05/07,11:40,0.190,0.180,0.291,0.273,0.270,0.147,0.089,west-northwest,5.7,No
2019/05/07,11:50,0.192,0.180,0.289,0.269,0.266,0.145,0.089,west,4.8,No
2019/05/07,12:00,0.191,0.179,0.289,0.271,0.270,0.146,0.090,west-northwest,7.8,No
2019/05/07,12:10,0.192,0.180,0.292,0.272,0.267,0.146,0.089,northwest,5.7,No
2019/05/07,12:20,0.191,0.180,0.290,0.269,0.268,0.146,0.089,northwest,7.8,No
2019/05/07,12:30,0.193,0.182,0.292,0.274,0.269,0.146,0.090,northwest,6.6,No
2019/05/07,12:40,0.192,0.181,0.289,0.272,0.268,0.146,0.091,northwest,5.7,No
2019/05/07,12:50,0.193,0.181,0.293,0.273,0.271,0.147,0.090,west-northwest,5.5,No
2019/05/07,13:00,0.193,0.180,0.291,0.274,0.268,0.146,0.089,northwest,10.1,No
2019/05/07,13:10,0.192,0.181,0.291,0.270,0.268,0.146,0.090,northwest,8.1,No
2019/05/07,13:20,0.194,0.181,0.292,0.275,0.269,0.147,0.090,northwest,7.3,No
2019/05/07,13:30,0.191,0.181,0.292,0.273,0.270,0.146,0.090,northwest,7.7,No
2019/05/07,13:40,0.193,0.181,0.294,0.273,0.271,0.147,0.090,northwest,7.6,No
2019/05/07,13:50,0.192,0.181,0.291,0.274,0.267,0.147,0.089,northwest,9.8,No
2019/05/07,14:00,0.192,0.180,0.292,0.271,0.270,0.146,0.090,north-northwest,8.7,No
2019/05/07,14:10,0.192,0.180,0.291,0.275,0.269,0.147,0.089,north-northwest,7.0,No
2019/05/07,14:20,0.193,0.182,0.293,0.272,0.270,0.146,0.090,north-northwest,8.2,No
2019/05/07,14:30,0.192,0.180,0.292,0.274,0.269,0.148,0.090,northwest,9.6,No
2019/05/07,14:40,0.192,0.181,0.294,0.276,0.268,0.147,0.090,northwest,6.5,No
2019/05/07,14:50,0.193,0.181,0.294,0.271,0.271,0.146,0.090,northwest,5.3,No
2019/05/07,15:00,0.192,0.182,0.291,0.275,0.269,0.146,0.089,north-northwest,8.1,No
2019/05/07,15:10,0.194,0.181,0.293,0.275,0.265,0.146,0.090,northwest,10.0,No
2019/05/07,15:20,0.193,0.181,0.293,0.274,0.270,0.146,0.090,north-northwest,7.9,No
2019/05/07,15:30,0.193,0.182,0.292,0.275,0.270,0.147,0.090,northwest,7.9,No
2019/05/07,15:40,0.192,0.181,0.295,0.274,0.267,0.148,0.090,northwest,8.7,No
2019/05/07,15:50,0.193,0.182,0.292,0.274,0.271,0.146,0.090,northwest,7.9,No
2019/05/07,16:00,0.194,0.182,0.296,0.277,0.270,0.147,0.090,northwest,6.2,No
2019/05/07,16:10,0.192,0.182,0.295,0.274,0.269,0.148,0.090,northwest,5.7,No
2019/05/07,16:20,0.194,0.183,0.295,0.275,0.272,0.146,0.090,northwest,7.6,No
2019/05/07,16:30,0.193,0.181,0.294,0.274,0.270,0.147,0.090,northwest,7.1,No
2019/05/07,16:40,0.194,0.183,0.295,0.276,0.267,0.148,0.090,north-northwest,5.9,No
2019/05/07,16:50,0.193,0.182,0.296,0.274,0.272,0.147,0.090,north-northwest,6.3,No
2019/05/07,17:00,0.194,0.181,0.293,0.275,0.270,0.148,0.089,northwest,5.5,No
2019/05/07,17:10,0.193,0.182,0.295,0.274,0.268,0.147,0.090,northwest,4.9,No
2019/05/07,17:20,0.194,0.182,0.295,0.275,0.274,0.148,0.090,northwest,4.8,No
2019/05/07,17:30,0.193,0.183,0.296,0.275,0.269,0.147,0.090,northwest,3.8,No
2019/05/07,17:40,0.195,0.182,0.294,0.275,0.272,0.148,0.090,northwest,4.4,No
2019/05/07,17:50,0.195,0.182,0.295,0.276,0.271,0.148,0.090,northwest,2.7,No
2019/05/07,18:00,0.194,0.184,0.295,0.276,0.272,0.147,0.090,northwest,3.4,No
2019/05/07,18:10,0.195,0.182,0.295,0.275,0.271,0.147,0.090,northwest,3.8,No
2019/05/07,18:20,0.194,0.184,0.296,0.277,0.272,0.147,0.090,northwest,3.9,No
2019/05/07,18:30,0.196,0.182,0.293,0.274,0.270,0.148,0.090,north-northwest,5.1,No
2019/05/07,18:40,0.194,0.182,0.295,0.277,0.272,0.148,0.091,northwest,4.8,No
2019/05/07,18:50,0.195,0.183,0.295,0.275,0.271,0.148,0.091,northwest,4.1,No
2019/05/07,19:00,0.193,0.183,0.293,0.274,0.271,0.149,0.091,northwest,3.8,No
2019/05/07,19:10,0.194,0.183,0.296,0.277,0.271,0.149,0.090,west-northwest,3.0,No
2019/05/07,19:20,0.194,0.182,0.295,0.276,0.269,0.149,0.090,northwest,4.8,No
2019/05/07,19:30,0.193,0.183,0.295,0.275,0.271,0.148,0.089,north-northwest,3.0,No
2019/05/07,19:40,0.194,0.183,0.297,0.276,0.272,0.147,0.091,west-northwest,1.5,No
2019/05/07,19:50,0.194,0.183,0.295,0.276,0.270,0.148,0.091,north-northwest,2.1,No
2019/05/07,20:00,0.194,0.182,0.296,0.275,0.270,0.148,0.091,northwest,2.0,No
2019/05/07,20:10,0.194,0.183,0.295,0.275,0.271,0.147,0.091,west,2.6,No
2019/05/07,20:20,0.194,0.182,0.293,0.276,0.269,0.148,0.091,west-northwest,4.1,No
2019/05/07,20:30,0.195,0.183,0.295,0.276,0.270,0.148,0.091,west,7.1,No
2019/05/07,20:40,0.195,0.183,0.295,0.275,0.269,0.149,0.091,west,10.4,No
2019/05/07,20:50,0.194,0.183,0.296,0.276,0.270,0.148,0.090,west,10.1,No
2019/05/07,21:00,0.194,0.183,0.293,0.276,0.270,0.148,0.091,west,10.1,No
2019/05/07,21:10,0.194,0.183,0.296,0.276,0.271,0.148,0.091,west,11.2,No
2019/05/07,21:20,0.194,0.183,0.296,0.276,0.269,0.148,0.091,west,8.8,No
2019/05/07,21:30,0.195,0.182,0.295,0.276,0.271,0.148,0.091,west,7.6,No
2019/05/07,21:40,0.194,0.183,0.295,0.276,0.270,0.148,0.090,west,7.6,No
2019/05/07,21:50,0.193,0.181,0.294,0.276,0.271,0.148,0.090,west,7.9,No
2019/05/07,22:00,0.194,0.182,0.294,0.276,0.272,0.147,0.090,west-northwest,7.0,No
2019/05/07,22:10,0.193,0.183,0.296,0.275,0.270,0.148,0.090,west-northwest,5.1,No
2019/05/07,22:20,0.194,0.182,0.293,0.276,0.269,0.148,0.090,west-northwest,4.1,No
2019/05/07,22:30,0.194,0.182,0.295,0.276,0.270,0.148,0.090,west-northwest,3.0,No
2019/05/07,22:40,0.194,0.184,0.295,0.275,0.271,0.147,0.090,northwest,3.8,No
2019/05/07,22:50,0.194,0.182,0.294,0.276,0.270,0.148,0.090,northwest,4.3,No
2019/05/07,23:00,0.193,0.182,0.295,0.274,0.270,0.148,0.091,northwest,3.4,No
2019/05/07,23:10,0.194,0.183,0.295,0.275,0.272,0.149,0.091,west-northwest,4.1,No
2019/05/07,23:20,0.195,0.183,0.296,0.275,0.269,0.149,0.091,northwest,2.4,No
2019/05/07,23:30,0.195,0.183,0.295,0.277,0.270,0.148,0.090,north-northwest,2.3,No
2019/05/07,23:40,0.194,0.183,0.296,0.276,0.270,0.148,0.090,northwest,2.9,No
2019/05/07,23:50,0.194,0.183,0.295,0.275,0.270,0.149,0.090,northwest,3.8,No
